CZ-2C DEB

Satellite information

Favourite Embed

Satellite Type and Status

DEBRISIN ORBIT

Key statistics

Satellite CZ-2C DEB at a glance.

Uptime

4314

Days in orbit

Revolutions

≈ 14.8

Per day

Orbit

SSO

Sun Synchronous Orbit

Inclination

97.8

Latest

Satellite identification and parameters

Extended collection of information and parameters for CZ-2C DEB.

Object identification

Identified? True

Debris? True

Object name: CZ-2C DEB

International designator: 2013-035D

Object number (NORAD): 39205

Object ID (CCSDS): 39205

Country: PEOPLES REPUBLIC OF CHINA (PRC)

Current information (Y/N): Y

RCS size: SMALL

Orbital parameters

Period: 97.274 minutes

Inclination: 97.8045 deg

SMA: 7006.356 km

Apoapsis: 674.088 km

Periapsis: 582.353 km

RAAN: 128.7343 deg

Eccentricy: 0.0065465

Argument of periapsis: 53.9263 deg

Mean anomaly: 306.7989 deg

Mean motion: 14.80350313 rev/day

Mean motion (dot): 0.00013904 rev/day2

B* drag term: 0.0017613 1/REarth

Two-line elements (TLE)

Creation date: May 7, 2025, 3:14 a.m.

Reference frame: TEME

Reference center: EARTH

Epoch: May 6, 2025, 10:48 p.m. UTC

TLE line 0: 0 CZ-2C DEB

TLE line 1: 1 39205U 13035D 25126.95002460 .00013904 00000-0 17613-2 0 9990

TLE line 2: 2 39205 97.8045 128.7343 0065465 53.9263 306.7989 14.80350313627977

Live tracking on map

Real-time ground track for satellite CZ-2C DEB.

In-orbit conjunctions

A list of the most updated potential collisions computed for object CZ-2C DEB.

Target Orbit TCA Probability of collision Miss distance Type
PSLV R/B SSO 2025-03-29 08:42:51 0.000103297 797.0 (m) ROCKET BODY
ATLAS CENTAUR R/B LEO 2025-01-04 02:32:01 0.0002700064 291.0 (m) ROCKET BODY

Associated space launch

CZ-2C DEB was lifted into orbit during the mission ‘Long March 2C | Shijian 11-05’, on board a Long March 2 space rocket.

The launch took place on July 15, 2013, 9:27 a.m. from Launch Area 4 (SLS-2 / 603).

For more information about the launch, click the button.

Launch to space Long March 2C | Shijian 11-05
Long March 2C | Shijian 11-05

Agency: N/A

Status: Launch Successful

Launch date: July 15, 2013, 9:27 a.m. UTC

Rocket: Long March 2

Launch pad: Launch Area 4 (SLS-2 / 603)

Location: Jiuquan Satellite Launch Center, People's Republic of China

...

Latest news about this satellite

There are no fresh news available about this satellite. Check back as we update our databases every day.


Newsletter sign-up

Weekly statistics, charts and insights to help you stay on top of the space industry.